{"data":{"norad_id":60367,"epoch":"2026-05-24T19:50:44.018304Z","epoch_age_seconds":80034,"freshness":"FRESH","line1":"1 60367U 24138N   26144.82689836 -.00001508  00000+0 -38829-4 0  9996","line2":"2 60367  53.1619 316.0157 0000869  60.2392 299.8695 15.30192765102287","mean_motion":15.30192765,"eccentricity":8.69e-5,"inclination_deg":53.1619,"raan_deg":316.0157,"arg_perigee_deg":60.2392,"mean_anomaly_deg":299.8695,"bstar":-3.8829e-5,"rev_number":10228,"period_min":94.105790651807,"perigee_km":474.64111373823,"apogee_km":475.83223008241,"semimajor_km":6853.3736719103,"source":"CELESTRAK","updated_at":"2026-05-25T13:38:19.240569Z"}}